EA5ILC Weather Reports


Display with metric or nautical units.
time (UTC)temp
F
wind
direction
speed
MPH
gust
MPH
rain 1hr
in
rain 24hr
in
rain mn
in
humidity
%
barometer
mb
20260504184519 64 158 0.0 2.0 0.00 0.14 0.14 87 1013.6
20260504183557 64 138 1.0 4.0 0.00 0.14 0.14 86 1013.4
20260504182614 64 101 3.0 4.0 0.00 0.14 0.14 86 1013.5
20260504181632 64 121 3.0 6.0 0.00 0.14 0.14 85 1013.5
20260504180609 64 143 3.0 6.0 0.00 0.14 0.14 85 1013.6
20260504175606 65 133 3.0 8.0 0.00 0.14 0.14 83 1013.4
20260504174603 66 113 2.0 6.0 0.00 0.14 0.14 81 1013.7
20260504173601 68 111 2.0 4.0 0.00 0.14 0.14 79 1013.5
20260504172558 70 233 1.0 4.0 0.00 0.14 0.14 76 1013.5
20260504171556 70 197 2.0 4.0 0.00 0.14 0.14 75 1013.6
20260504170553 69 113 0.0 4.0 0.00 0.14 0.14 78 1013.5
20260504150552 67 228 0.0 2.0 0.00 0.14 0.14 83 1013.6
20260504140556 70 166 3.0 7.0 0.00 0.14 0.14 80 1013.9
20260504130520 73 145 3.0 6.0 0.00 0.14 0.14 74 1014.2
20260504110549 67 280 1.0 4.0 0.00 0.14 0.14 83 1015.3
20260504100534 63 207 2.0 6.0 0.00 0.14 0.14 91 1015.7
20260504081605 63 185 2.0 4.0 0.00 0.14 0.14 95 1015.8
20260504080602 63 203 0.0 2.0 0.00 0.14 0.14 96 1015.7
20260504050516 61 0.0 0.0 0.00 0.14 0.14 98 1015.0
20260504045613 60 0.0 0.0 0.00 0.14 0.14 98 1014.8
20260504044631 60 0.0 0.0 0.00 0.14 0.14 98 1014.8
20260504043608 60 0.0 0.0 0.00 0.14 0.14 98 1014.7
20260504042605 60 0 0.0 2.0 0.00 0.14 0.14 98 1014.8
20260504041603 60 0 0.0 2.0 0.00 0.14 0.14 98 1014.8
20260504040600 60 338 0.0 2.0 0.00 0.14 0.14 98 1014.8
20260504035618 59 0.0 0.0 0.00 0.14 0.14 98 1015.1
20260504034555 60 0.0 0.0 0.06 0.14 0.14 97 1015.1
20260504033552 60 0.0 0.0 0.06 0.14 0.14 97 1015.4
20260504032550 60 0.0 2.0 0.06 0.14 0.14 97 1015.4
20260504031548 59 0.0 0.0 0.14 0.14 0.14 97 1015.6
20260504030545 59 0.0 0.0 0.14 0.14 0.14 96 1015.6
20260504025542 59 0.0 0.0 0.14 0.14 0.14 96 1015.8
20260504024539 0 0.0 0.0 0.08 0.08 0.08 1015.6
20260504023557 0 0.0 0.0 0.08 0.08 0.08 1015.7
20260504022534 61 0.0 0.0 0.08 0.08 0.08 92 1015.7
20260504021532 61 270 1.0 2.0 0.00 0.00 0.00 91 1015.8
20260504020559 61 158 0.0 2.0 0.00 0.00 0.00 91 1015.8
20260504015556 62 0.0 2.0 0.00 0.00 0.00 90 1015.7
20260504014554 62 165 0.0 2.0 0.00 0.00 0.00 88 1015.9
20260504013551 62 0.0 2.0 0.00 0.00 0.00 87 1015.8
20260504012549 62 187 1.0 2.0 0.00 0.00 0.00 87 1015.7
20260504011546 62 0.0 2.0 0.00 0.00 0.00 89 1015.9
20260504010543 62 0.0 0.0 0.00 0.00 0.00 90 1015.9
20260504005621 62 0.0 0.0 0.00 0.00 0.00 91 1015.9
20260504004538 62 0.0 0.0 0.00 0.00 0.00 91 1015.7
20260504003535 62 0.0 0.0 0.00 0.00 0.00 91 1015.7
20260504002533 62 0.0 0.0 0.00 0.00 0.00 91 1015.8
20260504001550 61 0.0 0.0 0.00 0.00 0.00 91 1015.8
20260504000528 61 0.0 0.0 0.00 0.00 0.00 90 1015.9
20260503235545 61 0 0.0 2.0 0.00 0.00 0.00 90 1016.1
20260503234542 62 352 1.0 4.0 0.00 0.00 0.00 90 1016.3
20260503233520 62 3 2.0 4.0 0.00 0.00 0.00 89 1016.4
20260503232517 62 23 0.0 2.0 0.00 0.00 0.00 87 1016.6
20260503231615 62 0 0.0 4.0 0.00 0.00 0.00 87 1016.5
20260503230612 62 0.0 2.0 0.00 0.00 0.00 87 1016.6
20260503225750 62 0.0 2.0 0.00 0.00 0.00 88 1016.7
20260503224607 62 113 0.0 2.0 0.00 0.00 0.00 88 1016.8
20260503223624 62 90 1.0 2.0 0.00 0.00 0.00 88 1016.8
20260503222602 62 225 1.0 2.0 0.00 0.00 0.00 88 1016.8
20260503221559 61 0.0 2.0 0.00 0.00 0.00 89 1016.9
20260503220556 61 0.0 2.0 0.00 0.00 0.00 89 1017.0
20260503215554 61 121 1.0 2.0 0.00 0.00 0.00 89 1017.0
20260503214551 0 0.0 0.0 0.00 0.00 0.00 1016.8
20260503213548 0 0.0 0.0 0.00 0.00 0.00 1017.0
20260503212546 61 0.0 0.0 0.00 0.00 0.00 93 1017.2
20260503211543 61 0.0 0.0 0.00 0.00 0.00 93 1017.0
20260503210541 61 327 1.0 2.0 0.00 0.00 0.00 94 1016.8
20260503205558 61 332 0.0 2.0 0.00 0.00 0.00 94 1016.9
20260503204536 61 270 1.0 2.0 0.00 0.00 0.00 94 1016.9
20260503203533 61 267 1.0 4.0 0.00 0.00 0.00 94 1016.8
20260503202530 61 284 2.0 4.0 0.00 0.00 0.00 93 1016.6
20260503201527 61 284 1.0 4.0 0.00 0.00 0.00 93 1016.4
20260503200525 61 338 2.0 4.0 0.00 0.00 0.00 93 1016.3
20260503195522 61 253 1.0 4.0 0.00 0.00 0.00 93 1016.1
20260503194520 62 320 0.0 2.0 0.00 0.00 0.00 93 1015.8
20260503193517 62 40 1.0 4.0 0.00 0.00 0.00 92 1015.4
20260503192615 62 133 1.0 2.0 0.00 0.00 0.00 92 1015.2
20260503191612 62 116 1.0 4.0 0.00 0.00 0.00 92 1015.1
20260503190610 62 102 1.0 4.0 0.00 0.00 0.00 92 1015.2
20260503185607 62 262 1.0 4.0 0.00 0.00 0.00 92 1015.2